Flag Weather past 2 weeks in Neuwied, Rhineland-Palatinate, Germany

Now
34 °F

Chilly.


Feels Like: 26 °F
Forecast: 30 / 43 °F
Wind: 9 mph from East

Location: Buechel

Current Time: Nov 29, 2014 at 8:53:14 AM

Latest Report: Nov 29, 2014 at 8:20 AM


Visibility: 0 mi

Pressure: 29.92 "Hg

Humidity: 93%

Dew point: 32 °F

Location of NeuwiedLocation

Historic Weather in Neuwied — Graph

°F

Neuwied temperature yesterday

Maximum temperature yesterday: 39 °F (at 2:20 AM)
Minimum temperature yesterday: 34 °F (at 8:20 PM)
Average temperature yesterday: 36 °F

Past Weeks' High & Low Weather Summary

 TemperatureHumidityPressure
High52 °F (Nov 22, 2:20 PM)100% (Nov 15, 1:20 AM)30.30 "Hg (Nov 15, 1:20 AM)
Low34 °F (Nov 24, 9:20 PM)66% (Nov 19, 1:20 PM)29.53 "Hg (Nov 16, 6:20 AM)
Average41 °F93%29.93 "Hg
* Reported Nov 14 7:20 AM — Nov 29 7:20 AM, Neuwied, Weather by CustomWeather, © 2014

Note: Actual official high and low records may vary slightly from our data, if they occured in-between our weather recording intervals... More about our weather records

Advertising

Neuwied weather history for previous 24 hours

 ConditionsComfort  
Time TempWeatherWind HumidityBarometerVisibility
7:20 AM
Nov 29
34 °FChilly.10 mph93%29.92 "Hg0 mi
6:20 AM34 °FChilly.12 mph93%29.89 "Hg0 mi
5:20 AM34 °FChilly.9 mph93%29.89 "Hg0 mi
4:20 AM34 °FChilly.10 mph100%29.89 "Hg0 mi
3:20 AM34 °FChilly.12 mph100%29.89 "Hg0 mi
2:20 AM34 °FChilly.13 mph100%29.89 "Hg0 mi
1:20 AM34 °FChilly.12 mph100%29.86 "Hg0 mi
12:20 AM34 °FChilly.12 mph100%29.89 "Hg1 mi
11:20 PM
Nov 28
34 °FChilly.12 mph100%29.86 "Hg1 mi
10:20 PM34 °FChilly.10 mph100%29.86 "Hg1 mi
9:20 PM34 °FChilly.12 mph100%29.86 "Hg1 mi
8:20 PM34 °FChilly.10 mph100%29.86 "Hg1 mi
7:20 PM36 °FChilly.13 mph93%29.83 "Hg1 mi
6:20 PM36 °FChilly.12 mph93%29.83 "Hg2 mi
5:20 PM36 °FChilly.13 mph100%29.80 "Hg2 mi
4:20 PM37 °FChilly.12 mph93%29.80 "Hg2 mi
3:20 PM37 °FChilly.12 mph93%29.80 "Hg2 mi
2:20 PM37 °FChilly.12 mph100%29.77 "Hg2 mi
1:20 PM37 °FChilly.12 mph100%29.80 "Hg2 mi
12:20 PM37 °FFog.9 mph100%29.80 "Hg1 mi
11:20 AM37 °FFog.13 mph93%29.80 "Hg1 mi
10:20 AM36 °FFog.14 mph100%29.80 "Hg1 mi
9:20 AM36 °FFog.14 mph100%29.80 "Hg1 mi
8:20 AM36 °FFog.10 mph100%29.77 "Hg1 mi
Weather by CustomWeather, © 2014

See weather overviewHow to use our weather pages